Regional Weather Roundup
Issued by NWS

Home | Current Version | Previous Version | Text Only | Print | Product List | Glossary On
Versions: 1 2 3 4 5 6 7 8 9 10 11 12 13 14 15 16 17 18 19 20 21 22 23 24 25 26 27 28 29 30 31 32 33 34 35 36 37 38 39 40 41 42 43 44 45 46 47 48 49 50
000
ASCA42 TJSJ 252210
RWRPR
PUERTO RICO/U.S. VIRGIN ISLANDS HOURLY WEATHER ROUNDUP
NATIONAL WEATHER SERVICE SAN JUAN PR
600 PM AST WED MAY 25 2016

PRZ001-004-252300-
PUERTO RICO

CITY           SKY/WX    TMP DP  RH WIND       PRES   REMARKS
SAN JUAN LMM   MOSUNNY   84  73  70 E18       30.00S HX  91
AGUADILLA      PTSUNNY   81  73  78 E12G18    30.01S
CEIBA          SUNNY     82  72  69 E10       30.03S
$$

PRZ006-007-252300-
U.S. VIRGIN ISLANDS

CITY           SKY/WX    TMP DP  RH WIND       PRES   REMARKS
CHARLOTTE AMA  PTSUNNY   84  73  70 E9        30.00F HX  91
CHRISTIANSTED  PTCLDY    82  72  69 E12       30.01S
$$

HOURLY WEATHER ROUNDUP FOR THE NEWS MEDIA

CITY           SKY/WX    TMP DP  RH WIND       PRES   REMARKS
ORLANDO        MOSUNNY   85  54  34 E12       30.17F
NEW YORK       MOSUNNY   77  52  41 S10       30.04R
NEWARK         MOSUNNY   88  39  17 W14G22    30.02S
CHICAGO        CLOUDY    82  58  43 S10       29.87F THUNDER
HARTFORD       SUNNY     80  56  43 SW9       29.96S
BOSTON         MOSUNNY   88  43  20 W15G21    29.93S
DALLAS         CLOUDY    85  73  67 S10       29.92F HX  91
PHILADELPHIA   PTSUNNY   87  46  24 SW13      30.07F
LOS ANGELES    PTSUNNY   64  52  64 SW13      30.09S
WASHINGTON DC  PTSUNNY   83  52  34 SW6       30.11F


USA.gov is the U.S. government's official web portal to all federal, state and local government web resources and services.